date,time,DOY,Ta_1_1_1,RH_1_1_1,LWin_1_1_1,LWout_1_1_1,SWin_1_1_1,SWout_1_1_1,PPFD_1_1_1,SWC_1_1_1,Ts_1_1_1
[yyyy-mm-dd],[HH:MM],[ddd.ddd],[K],[%],[W+1m-2],[W+1m-2],[W+1m-2],[W+1m-2],[µmol+1m-2s-1],[m+3m-3],[K]
2013-01-10,00:30,10.020,268.00233333333335,77.247666666666646,-9999.0,-9999.0,0.13899999999999996,-2.9916666666666658,1.13333333333333341E-002,-9999.0,279.90999999999991
2013-01-10,01:00,10.041,267.60800000000000,78.940000000000012,-9999.0,-9999.0,-0.16066666666666668,-3.1003333333333334,7.33333333333333233E-003,-9999.0,279.90999999999991
2013-01-10,01:30,10.062,267.03566666666671,81.698999999999998,-9.3340909090909108,-9999.0,-3.43333333333333129E-002,-2.4936666666666669,1.23333333333333368E-002,-9999.0,279.90999999999991
2013-01-10,02:00,10.083,267.41500000000002,80.171666666666667,-9.5688461538461542,-9999.0,0.19466666666666663,-2.3346666666666667,1.36666666666666707E-002,-9999.0,279.90999999999991
2013-01-10,02:30,10.104,267.39466666666669,79.923000000000002,-9.4148275862068953,-9999.0,-9.00000000000000799E-003,-2.5043333333333337,1.06666666666666646E-002,-9999.0,279.90999999999991
2013-01-10,03:00,10.124,266.70700000000005,82.618666666666670,-7.8713333333333315,-9999.0,5.13333333333333350E-002,-2.5049999999999999,1.16666666666666689E-002,-9999.0,279.90999999999991
2013-01-10,03:30,10.145,266.89900000000000,81.737333333333325,-8.8876666666666662,-9999.0,0.19166666666666668,-2.5569999999999999,1.43333333333333351E-002,-9999.0,279.90999999999991
2013-01-10,04:00,10.166,267.06466666666665,80.415333333333336,-9.0756666666666685,-9999.0,0.20866666666666667,-2.5316666666666658,7.00000000000000101E-003,-9999.0,279.90999999999991
2013-01-10,04:30,10.187,267.27233333333334,78.616333333333344,-9.4126666666666665,-9999.0,0.18333333333333338,-2.6083333333333334,1.40000000000000020E-002,-9999.0,279.90999999999991
2013-01-10,05:00,10.208,267.55666666666673,77.196999999999989,-9.5003448275862059,-9999.0,0.22300000000000003,-2.5009999999999994,1.03333333333333350E-002,-9999.0,279.90999999999991
2013-01-10,05:30,10.229,267.45766666666674,77.323999999999998,-9.3806666666666647,-9999.0,-7.96666666666666495E-002,-2.6703333333333332,8.66666666666666627E-003,-9999.0,279.90999999999991
2013-01-10,06:00,10.249,267.04066666666665,79.956666666666663,-8.6279999999999983,-9999.0,7.13333333333333180E-002,-2.5703333333333327,1.46666666666666681E-002,-9999.0,279.90999999999991
2013-01-10,06:30,10.270,266.97300000000001,79.974666666666678,-8.7079999999999984,-9999.0,0.11299999999999999,-2.5943333333333336,8.00000000000000017E-003,-9999.0,279.90999999999991
2013-01-10,07:00,10.291,266.91133333333335,79.958666666666673,-9.0600000000000005,-9999.0,8.93333333333333340E-002,-2.6170000000000000,1.50000000000000012E-002,-9999.0,279.90999999999991
2013-01-10,07:30,10.312,266.92966666666672,79.464333333333329,-9.0479999999999983,-9999.0,0.27400000000000002,-2.0426666666666673,0.80033333333333323,-9999.0,279.90999999999991
2013-01-10,08:00,10.333,267.47133333333335,75.847999999999999,-9.6724137931034502,-9999.0,1.9056666666666662,5.0509999999999993,16.674999999999997,-9999.0,279.90999999999991
2013-01-10,08:30,10.354,268.02899999999994,72.022333333333336,-9.7988888888888894,-9999.0,7.6850000000000005,38.147333333333329,78.330666666666687,-9999.0,279.90999999999991
2013-01-10,09:00,10.374,269.46866666666671,63.685666666666670,-9999.0,-9999.0,21.021333333333335,121.23666666666665,213.59300000000002,-9999.0,279.90999999999991
2013-01-10,09:30,10.395,271.30300000000005,53.301000000000002,-9999.0,-9999.0,30.387999999999995,187.24300000000002,336.66266666666672,-9999.0,279.90999999999991
2013-01-10,10:00,10.416,273.06166666666672,44.000333333333323,-9999.0,-9999.0,38.859000000000002,243.99033333333333,447.25966666666670,-9999.0,279.90999999999991
2013-01-10,10:30,10.437,274.64533333333327,36.297000000000004,-9999.0,-9999.0,46.477999999999994,292.98300000000006,542.00233333333324,-9999.0,279.90999999999991
2013-01-10,11:00,10.458,275.47999999999996,32.845333333333343,-9999.0,-9999.0,50.604999999999997,320.76166666666654,602.43699999999990,-9999.0,279.90999999999991
2013-01-10,11:30,10.479,275.44666666666660,32.049666666666674,-9999.0,-9999.0,40.618666666666670,248.70499999999998,484.43466666666671,-9999.0,279.90999999999991
2013-01-10,12:00,10.499,276.07866666666661,31.030999999999995,-9999.0,-9999.0,50.779000000000003,299.26833333333337,577.04600000000005,-9999.0,279.90999999999991
2013-01-10,12:30,10.520,276.85533333333331,29.536000000000005,-9999.0,-9999.0,48.290333333333336,284.46366666666660,553.75866666666661,-9999.0,279.90999999999991
2013-01-10,13:00,10.541,277.32899999999995,28.909666666666670,-9999.0,-9999.0,50.110333333333344,295.74233333333325,571.96500000000015,-9999.0,279.90999999999991
2013-01-10,13:30,10.562,277.62433333333331,27.016333333333339,-9999.0,-9999.0,43.265333333333338,250.81000000000003,487.17666666666668,-9999.0,279.90999999999991
2013-01-10,14:00,10.583,277.46033333333332,26.206000000000007,-9999.0,-9999.0,33.660333333333334,183.22366666666670,359.91600000000005,-9999.0,279.90999999999991
2013-01-10,14:30,10.604,277.41533333333336,26.333666666666669,-9999.0,-9999.0,27.937000000000008,149.81599999999997,295.00233333333330,-9999.0,279.90999999999991
2013-01-10,15:00,10.624,277.30600000000010,27.540000000000006,-9999.0,-9999.0,20.587000000000000,106.29033333333332,211.21833333333331,-9999.0,279.90999999999991
2013-01-10,15:30,10.645,277.10566666666665,27.918666666666663,-9999.0,-9999.0,12.017666666666672,59.922000000000011,120.76900000000005,-9999.0,279.90999999999991
2013-01-10,16:00,10.666,276.88066666666668,29.641333333333332,-9999.0,-9999.0,5.5370000000000008,26.661333333333335,55.428333333333313,-9999.0,279.90999999999991
2013-01-10,16:30,10.687,276.54933333333344,28.782333333333334,-9999.0,-9999.0,1.3583333333333338,5.7933333333333321,15.817666666666666,-9999.0,279.90999999999991
2013-01-10,17:00,10.708,276.18400000000003,29.248000000000005,-9999.0,-9999.0,-0.14033333333333334,-1.5773333333333330,1.4326666666666661,-9999.0,279.90999999999991
2013-01-10,17:30,10.729,275.75900000000001,31.813666666666666,-9999.0,-9999.0,-0.30966666666666665,-2.0016666666666660,1.76666666666666673E-002,-9999.0,279.90999999999991
2013-01-10,18:00,10.749,275.24800000000010,34.709000000000010,-9999.0,-9999.0,-0.35599999999999998,-1.8719999999999992,1.33333333333333329E-003,-9999.0,279.90999999999991
2013-01-10,18:30,10.770,274.93566666666663,37.573666666666668,-9.6564285714285756,-9999.0,-0.23466666666666666,-1.5540000000000000,1.33333333333333329E-003,-9999.0,279.90999999999991
2013-01-10,19:00,10.791,274.60933333333344,41.841333333333324,-8.8143333333333320,-9999.0,-0.26966666666666672,-1.2606666666666666,2.33333333333333353E-003,-9999.0,279.90999999999991
2013-01-10,19:30,10.812,274.40133333333330,47.532000000000011,-8.1163333333333316,-9999.0,-0.26533333333333325,-0.98233333333333328,2.00000000000000004E-003,-9999.0,279.90999999999991
2013-01-10,20:00,10.833,274.31133333333332,50.402999999999992,-7.4406666666666661,-8.6580000000000013,-0.29466666666666674,-0.51233333333333331,2.66666666666666658E-003,-9999.0,279.90999999999991
2013-01-10,20:30,10.854,274.34733333333332,53.257333333333342,-6.8933333333333326,-7.6209999999999996,-0.28499999999999998,-0.20300000000000010,1.33333333333333329E-003,-9999.0,279.90999999999991
2013-01-10,21:00,10.874,274.36700000000002,56.655000000000001,-6.7976666666666663,-7.6876666666666660,-0.29700000000000004,-0.23533333333333334,6.66666666666666644E-004,-9999.0,279.90999999999991
2013-01-10,21:30,10.895,273.82700000000000,68.712000000000003,-4.4013333333333344,-0.94100000000000017,0.62233333333333329,-2.3706666666666663,3.66666666666666660E-003,-9999.0,279.90999999999991
2013-01-10,22:00,10.916,273.00200000000001,86.159666666666666,-3.1963333333333335,0.70033333333333325,9.93333333333333290E-002,0.34066666666666667,6.66666666666666796E-003,-9999.0,279.90999999999991
2013-01-10,22:30,10.937,272.93466666666666,91.833333333333314,-3.2793333333333332,0.41566666666666668,3.03333333333333302E-002,0.70166666666666688,4.33333333333333227E-003,-9999.0,279.90999999999991
2013-01-10,23:00,10.958,273.08666666666670,94.344000000000008,-3.3513333333333342,0.35966666666666686,-0.29833333333333339,0.50566666666666671,3.33333333333333311E-003,-9999.0,279.90999999999991
2013-01-10,23:30,10.979,273.15399999999994,96.452333333333328,-3.2640000000000002,-3.9486666666666661,-0.43800000000000000,0.26733333333333342,2.33333333333333353E-003,-9999.0,279.90999999999991
2013-01-11,00:00,11.000,273.21833333333331,97.108666666666693,-3.5973333333333337,-4.3383333333333338,-0.16766666666666669,-0.15633333333333335,2.66666666666666658E-003,-9999.0,279.90999999999991
